[[{"header":{"parameterUnit":"m.s-1","parameterCategory":1,"la1":30.2991,"la2":30.254,"lo1":-89.0895,"lo2":-89.0444,"dy":0.0017,"dx":0.0017,"nx":28,"ny":28,"refTime":"2024-07-02T03:00:00:Z","depth":0,"parameterNumber":2,"parameterNumberName":"U-component_of_WINDS"},"data":[0,0,0,0,0,0,0,0,0,0,0,0,0,0,0,0,0,0,0,0,0,0,0,0,0,0,0,0,0,0,0,0,0,0,0,0,0,0,0,0,0,0,0,0,0,0,0,0,0,0,0,0,0,0,0,0,0,0,2.3762,2.3763,0,2.3909,2.3911,2.3912,2.3897,2.3894,2.3892,2.389,2.4043,2.405,2.4056,0,0,0,0,0,0,0,0,0,0,0,0,0,2.347,2.3475,2.3762,2.3763,2.3765,2.3909,2.3911,2.3913,2.3897,2.3894,2.3891,2.3889,2.4041,2.4049,2.4056,0,0,0,0,0,0,0,0,0,0,0,0,0,2.3605,2.3477,2.3761,2.3775,2.3777,2.3908,2.3911,2.3913,2.3898,2.3894,2.3891,2.3887,2.4039,2.4048,2.4057,2.4185,0,0,2.4086,2.409,0,0,0,0,0,0,0,0,2.3597,2.3616,2.3771,2.3774,2.3777,2.3881,2.3864,2.4005,2.3899,2.3852,2.389,2.3886,2.3992,2.4005,2.4041,2.4193,2.4199,2.4087,2.4093,2.4097,2.4099,0,0,0,0,0,0,0,2.3588,2.3609,2.382,2.3773,2.3777,2.3774,2.379,2.3891,2.394,2.3856,2.3855,2.3873,2.3993,2.4032,2.4044,2.4201,2.4087,2.4095,2.4101,2.4104,2.4467,2.447,0,0,0,0,0,0,2.3575,2.3601,2.3815,2.3824,2.3677,2.3782,2.38,2.3851,2.3939,2.3949,2.3875,2.3871,2.4017,2.4033,2.405,2.4205,2.4097,2.4105,2.4111,2.4463,2.4467,2.4472,0,0,0,0,0,0,2.3569,2.3594,2.3809,2.3713,2.374,2.3791,2.3849,2.3856,2.3894,2.3954,2.3963,2.3905,2.4015,2.4036,2.4152,2.421,2.411,2.4118,2.4458,2.4464,2.447,2.4517,0,0,0,0,0,0,2.356,2.3592,2.364,2.3714,2.3745,2.3908,2.3853,2.3861,2.391,2.3906,2.3984,2.3994,2.4014,2.4138,2.4161,2.4221,2.4125,2.4453,2.4461,2.4468,2.4511,2.4524,2.4536,0,0,0,0,0,2.355,2.3648,2.3643,2.3668,2.3806,2.3911,2.3929,2.395,2.3915,2.3964,2.4003,2.3991,2.42,2.415,2.4176,2.424,2.4449,2.4458,2.4467,2.4505,2.4522,2.4536,0,0,0,0,0,0,2.358,2.3658,2.3653,2.3777,2.3838,2.3908,2.3971,2.3967,2.4039,2.4032,2.4056,2.4074,2.419,2.4227,2.4169,2.4369,2.432,2.4335,2.434,2.4356,2.4369,2.4357,2.4133,0,0,0,0,0,2.3601,2.3679,2.3743,2.3847,2.3878,2.392,2.3966,2.3977,2.4041,2.4066,2.4113,2.4177,2.4257,2.4309,2.4386,2.4517,2.4534,2.4574,2.4586,2.4596,2.4608,2.4681,2.4699,2.4501,2.4501,2.4501,0,0,2.3646,2.3698,2.3746,2.3855,2.3903,2.3984,2.3941,2.4028,2.4089,2.408,2.4191,2.4228,2.4301,2.4424,2.4481,2.4458,2.4667,2.4608,2.4615,2.4622,2.4692,2.471,2.4727,2.4507,2.4506,2.4505,0,0,2.3768,2.3816,2.3907,2.3957,2.403,2.4057,2.4079,2.4151,2.4175,2.4287,2.4282,2.4355,2.4493,2.4544,2.4589,2.4732,2.4725,2.4757,2.4822,2.4892,2.4908,2.4922,2.4973,2.4991,2.4769,2.4769,2.4769,0,2.3814,2.3935,2.3955,2.4044,2.4092,2.4088,2.4181,2.4229,2.4324,2.4358,2.4331,2.4503,2.4552,2.4688,2.4723,2.4759,2.4785,2.4747,2.4904,2.4918,2.4931,2.498,2.4999,2.4773,2.4772,2.4772,2.4772,0,2.3988,2.4073,2.4138,2.4229,2.4285,2.4376,2.4411,2.4466,2.4472,2.4503,2.4618,2.4676,2.4765,2.4798,2.4806,2.4936,2.4919,2.4898,2.4849,2.4953,2.5,2.5018,2.4778,2.4776,2.4775,2.4775,0,0,2.4132,2.4234,2.4258,2.4299,2.4381,2.4446,2.4538,2.4624,2.467,2.4737,2.4814,2.4931,2.4912,2.4963,2.4976,2.5038,2.5148,2.501,2.5012,2.5033,2.5295,2.5309,2.5331,2.5144,2.5148,2.5151,2.5289,0,2.4262,2.4422,2.4443,2.4586,2.4664,2.4662,2.4741,2.48,2.4832,2.4904,2.4939,2.5021,2.499,2.5021,2.5082,2.5122,2.5201,2.5112,2.5217,2.522,2.5197,2.5355,2.5371,2.5498,2.5307,2.531,2.5312,0,2.4434,2.4504,2.4654,2.4725,2.4759,2.483,2.4911,2.4979,2.5047,2.5066,2.5123,2.5129,2.5225,2.5173,2.5306,2.5245,2.5289,2.5316,2.5321,2.5331,2.5271,2.5368,2.5539,2.5557,2.5341,2.5339,2.5337,0,2.4523,2.4656,2.4762,2.4798,2.4884,2.4934,2.4972,2.5036,2.5087,2.5159,2.5192,2.5274,2.5319,2.5383,2.5412,2.5372,2.5543,2.5494,2.5561,2.5561,2.5596,2.5593,2.5775,2.5627,2.5626,2.5626,2.5626,0,2.4665,2.4756,2.4803,2.4869,2.4972,2.4997,2.5098,2.5135,2.5192,2.5266,2.527,2.5339,2.5373,2.5448,2.5472,2.5578,2.5599,2.5617,2.5622,2.5616,2.5613,2.5644,2.5635,2.5631,2.563,2.5629,2.5628,0,2.4781,2.4816,2.4932,2.5004,2.5024,2.5097,2.5159,2.5223,2.5255,2.5348,2.5371,2.5421,2.5509,2.5545,2.5653,2.5669,2.5791,2.579,2.5768,2.5769,2.5834,2.5827,2.6041,2.6071,2.5904,2.5905,2.5907,0,2.4868,2.4939,2.5018,2.5067,2.5107,2.5186,2.5238,2.5266,2.532,2.5403,2.5457,2.5545,2.5617,2.5758,2.5805,2.5888,2.5888,2.5958,2.5901,2.5892,2.5888,2.5883,2.589,2.5968,2.5969,2.5971,2.5972,0,2.502,2.5034,2.5108,2.5188,2.525,2.5315,2.5378,2.5418,2.5457,2.5517,2.5607,2.5663,2.5773,2.5861,2.5947,2.5987,2.5987,2.599,2.601,2.6003,2.5987,2.5996,2.5795,2.5984,2.5983,2.5982,2.5981,2.5981,2.5124,2.5186,2.5252,2.5334,2.5385,2.5444,2.5508,2.5548,2.5623,2.5714,2.5727,2.5823,2.5891,2.6006,2.605,2.6127,2.6109,2.6138,2.6145,2.6151,2.6155,2.5976,2.6143,2.6142,2.6142,2.6142,2.6142,0,2.5274,2.5317,2.5392,2.5481,2.5546,2.5539,2.5609,2.5665,2.5749,2.5811,2.5882,2.5986,2.6071,2.6125,2.6211,2.6262,2.6264,2.6283,2.6279,2.6289,2.6167,2.614,2.628,2.628,2.628,2.628,2.628,2.628,2.536,2.5465,2.5488,2.5618,2.5661,2.5754,2.5795,2.585,2.59,2.6015,2.6086,2.612,2.618,2.627,2.6349,2.6362,2.6394,2.6415,2.6427,2.6312,2.6297,2.6283,2.6259,2.6421,2.6422,2.6542,2.6544,2.6544]},{"header":{"parameterUnit":"m.s-1","parameterCategory":1,"la1":30.2991,"la2":30.254,"lo1":-89.0895,"lo2":-89.0444,"dy":0.0017,"dx":0.0017,"nx":28,"ny":28,"refTime":"2024-07-02T03:00:00:Z","depth":0,"parameterNumber":3,"parameterNumberName":"V-component_of_WINDS"},"data":[0,0,0,0,0,0,0,0,0,0,0,0,0,0,0,0,0,0,0,0,0,0,0,0,0,0,0,0,0,0,0,0,0,0,0,0,0,0,0,0,0,0,0,0,0,0,0,0,0,0,0,0,0,0,0,0,0,0,-1.0581,-1.0581,0,-1.0608,-1.0608,-1.0608,-1.064,-1.0641,-1.0641,-1.0642,-1.0668,-1.0668,-1.0668,0,0,0,0,0,0,0,0,0,0,0,0,0,-1.0556,-1.0556,-1.0581,-1.0581,-1.0581,-1.0608,-1.0608,-1.0608,-1.064,-1.0641,-1.0642,-1.0642,-1.0668,-1.0668,-1.0668,0,0,0,0,0,0,0,0,0,0,0,0,0,-1.0573,-1.0556,-1.0581,-1.0601,-1.0603,-1.0607,-1.0608,-1.0608,-1.064,-1.0641,-1.0642,-1.0642,-1.0668,-1.0668,-1.0668,-1.0655,0,0,-1.0669,-1.067,0,0,0,0,0,0,0,0,-1.0572,-1.0574,-1.0597,-1.0599,-1.0602,-1.0621,-1.0609,-1.0624,-1.064,-1.0626,-1.0642,-1.0643,-1.0652,-1.0653,-1.0657,-1.0657,-1.0658,-1.0669,-1.067,-1.067,-1.067,0,0,0,0,0,0,0,-1.0571,-1.0573,-1.0591,-1.0598,-1.06,-1.0608,-1.0611,-1.0612,-1.0634,-1.0627,-1.063,-1.0632,-1.0653,-1.0656,-1.0658,-1.0658,-1.0669,-1.067,-1.067,-1.067,-1.0648,-1.0647,0,0,0,0,0,0,-1.0567,-1.0572,-1.059,-1.0592,-1.0588,-1.0608,-1.0611,-1.0614,-1.0634,-1.0638,-1.0632,-1.0634,-1.0655,-1.0657,-1.0659,-1.0644,-1.067,-1.067,-1.067,-1.0649,-1.0648,-1.0647,0,0,0,0,0,0,-1.0566,-1.0568,-1.0589,-1.0583,-1.0586,-1.0607,-1.061,-1.0614,-1.0618,-1.0638,-1.0642,-1.0631,-1.0656,-1.0658,-1.0656,-1.0646,-1.067,-1.0671,-1.065,-1.0649,-1.0648,-1.0615,0,0,0,0,0,0,-1.0565,-1.0568,-1.0563,-1.0582,-1.0586,-1.0586,-1.061,-1.0614,-1.0618,-1.0621,-1.0638,-1.0642,-1.0657,-1.0655,-1.0656,-1.0646,-1.0671,-1.0651,-1.0649,-1.0648,-1.0617,-1.0613,-1.061,0,0,0,0,0,-1.0564,-1.0553,-1.0563,-1.0565,-1.0581,-1.0586,-1.0588,-1.0606,-1.0618,-1.0613,-1.0626,-1.0641,-1.0647,-1.0655,-1.0656,-1.0646,-1.0652,-1.065,-1.0648,-1.0619,-1.0614,-1.061,0,0,0,0,0,0,-1.0531,-1.0556,-1.0567,-1.0562,-1.0571,-1.0591,-1.0586,-1.06,-1.0607,-1.0609,-1.0631,-1.0634,-1.0629,-1.0638,-1.0646,-1.0635,-1.0651,-1.065,-1.0629,-1.0624,-1.062,-1.0618,-1.0671,0,0,0,0,0,-1.0524,-1.0526,-1.0547,-1.054,-1.0545,-1.0564,-1.0567,-1.058,-1.0591,-1.0595,-1.0608,-1.0618,-1.0622,-1.0624,-1.0628,-1.0619,-1.0623,-1.0613,-1.0609,-1.0606,-1.0604,-1.0599,-1.0595,-1.0641,-1.0641,-1.0641,0,0,-1.0507,-1.0521,-1.0521,-1.0534,-1.0543,-1.0544,-1.0568,-1.0568,-1.0569,-1.0595,-1.0594,-1.0604,-1.0616,-1.061,-1.0608,-1.0617,-1.0592,-1.0604,-1.0601,-1.0601,-1.0597,-1.0593,-1.0589,-1.064,-1.064,-1.0641,0,0,-1.0478,-1.0489,-1.0484,-1.0493,-1.0507,-1.052,-1.0519,-1.0537,-1.0545,-1.0544,-1.0563,-1.0565,-1.0571,-1.0579,-1.0584,-1.0558,-1.0572,-1.0559,-1.0538,-1.0533,-1.0529,-1.0526,-1.0516,-1.0512,-1.0557,-1.0557,-1.0557,0,-1.0456,-1.0459,-1.048,-1.0479,-1.0484,-1.0508,-1.0503,-1.0511,-1.0525,-1.0528,-1.0538,-1.0546,-1.0557,-1.0552,-1.0546,-1.055,-1.0548,-1.0556,-1.0528,-1.0525,-1.0523,-1.0513,-1.051,-1.0555,-1.0555,-1.0556,-1.0556,0,-1.0431,-1.0432,-1.0427,-1.0441,-1.0445,-1.0442,-1.0462,-1.0464,-1.0477,-1.0489,-1.0487,-1.05,-1.0508,-1.0508,-1.0521,-1.0506,-1.0511,-1.0525,-1.0542,-1.0516,-1.0508,-1.0504,-1.0553,-1.0553,-1.0554,-1.0554,0,0,-1.038,-1.0406,-1.0403,-1.041,-1.0427,-1.0429,-1.0427,-1.0435,-1.0436,-1.0445,-1.0444,-1.0449,-1.0461,-1.0467,-1.0481,-1.0476,-1.0454,-1.049,-1.0491,-1.0482,-1.0438,-1.0426,-1.0422,-1.0464,-1.0464,-1.0463,-1.0436,0,-1.0353,-1.0352,-1.037,-1.0363,-1.0365,-1.0389,-1.0387,-1.0397,-1.0409,-1.0412,-1.0424,-1.0427,-1.0444,-1.0447,-1.0445,-1.0457,-1.0445,-1.046,-1.0462,-1.0462,-1.0457,-1.0418,-1.0406,-1.038,-1.0433,-1.0433,-1.0432,0,-1.0321,-1.0329,-1.0322,-1.034,-1.0341,-1.034,-1.0348,-1.0351,-1.0363,-1.0372,-1.0378,-1.0394,-1.0393,-1.041,-1.0408,-1.0418,-1.042,-1.0427,-1.0426,-1.0426,-1.0444,-1.0415,-1.0372,-1.0367,-1.0427,-1.0428,-1.0428,0,-1.0284,-1.0293,-1.029,-1.0295,-1.0316,-1.0314,-1.0322,-1.0335,-1.0339,-1.0346,-1.0349,-1.0356,-1.036,-1.0365,-1.0382,-1.0393,-1.0378,-1.0397,-1.0384,-1.0384,-1.0379,-1.0379,-1.0334,-1.0383,-1.0383,-1.0383,-1.0383,0,-1.0251,-1.0246,-1.0273,-1.0271,-1.0266,-1.0288,-1.0282,-1.0293,-1.0304,-1.0304,-1.0325,-1.0325,-1.0349,-1.0351,-1.0364,-1.036,-1.0362,-1.0369,-1.0372,-1.0366,-1.0365,-1.0367,-1.0368,-1.0382,-1.0382,-1.0382,-1.0382,0,-1.0208,-1.0226,-1.0224,-1.0244,-1.0249,-1.0244,-1.0261,-1.026,-1.0273,-1.0273,-1.0274,-1.0295,-1.0298,-1.0317,-1.0325,-1.0334,-1.0325,-1.0333,-1.0321,-1.0323,-1.0309,-1.0309,-1.0262,-1.0257,-1.031,-1.0309,-1.0309,0,-1.0185,-1.0181,-1.0201,-1.0203,-1.021,-1.0213,-1.0217,-1.0239,-1.0242,-1.0255,-1.0252,-1.0258,-1.0263,-1.0268,-1.0283,-1.0289,-1.0296,-1.028,-1.0297,-1.0291,-1.0295,-1.0294,-1.0293,-1.0275,-1.0275,-1.0274,-1.0274,0,-1.0142,-1.0151,-1.0156,-1.0164,-1.0168,-1.0176,-1.0184,-1.0184,-1.0208,-1.0211,-1.0215,-1.0219,-1.0227,-1.0232,-1.0241,-1.0249,-1.0265,-1.0268,-1.0265,-1.0258,-1.0251,-1.0254,-1.0309,-1.0269,-1.0269,-1.027,-1.027,-1.027,-1.0107,-1.0105,-1.0119,-1.0123,-1.0132,-1.014,-1.0139,-1.0153,-1.0157,-1.0165,-1.0178,-1.018,-1.0192,-1.0206,-1.0213,-1.0215,-1.0224,-1.022,-1.0219,-1.0217,-1.0214,-1.0252,-1.0217,-1.0217,-1.0217,-1.0217,-1.0217,0,-1.0065,-1.0075,-1.0079,-1.009,-1.0094,-1.0109,-1.012,-1.0121,-1.0123,-1.0134,-1.0139,-1.0143,-1.0148,-1.0164,-1.0171,-1.0169,-1.0176,-1.017,-1.0169,-1.0171,-1.0206,-1.0207,-1.0164,-1.0164,-1.0164,-1.0164,-1.0164,-1.0164,-1.0043,-1.0039,-1.005,-1.0052,-1.0062,-1.0064,-1.0069,-1.0076,-1.0084,-1.0088,-1.0093,-1.0103,-1.0116,-1.0123,-1.0129,-1.0133,-1.0134,-1.0125,-1.0132,-1.0163,-1.0169,-1.0173,-1.0175,-1.0125,-1.0125,-1.0096,-1.0096,-1.0096]}]]